We konden geen weer-waarchuwingen ophalen. Ga rechtstreeks naar de Meteoalarm site : www.meteoalarm.eu en controleer daar .



Onweer radar Meer informatie blitzortung!


Regen radar Meer informatie rain snow radar


Bezoek onze andere website:

Template documentation
and downloads

And another site



15 daagse weersverwachting Skövde (SE)

  • Overzicht
  • Per uur
  • 15 dagen
  • Extra
  • Vergelijk
  • Kaarten
  • Dagkaart
  • Meer »
  • Info
  • Statistieken
  • Directe link
    Temp 6h Neerslag Wind  
 05:36     20:42    Daglengte: 15:06 Vandaag
02:00
16°
 
1
08:00
17°
 
1
14:00
24°
 
3
20:00
22°
 
1
 05:38     20:40    Daglengte: 15:02 Morgen
02:00
18°
 
2
08:00
18°
 
2
14:00
22°
4.0 mm
2
warningclass
20:00
20°
18.1 mm
1
 05:40     20:37    Daglengte: 14:57 Zaterdag 20 Aug
02:00
17°
36.7 mm
2
08:00
18°
20.5 mm
3
14:00
20°
 
5
20:00
16°
 
3
Locatie info
Region: Västra Götalands län
Latitude: 58.3914°N
Longitude: 13.8472°E
152 masl
Postcode: 541 30
Temp/Neerslag /Baro Onweer/Dauwpunt
    Temp Baro 1h Neerslag Dauwpunt Wind UV Bewolking  
 05:36     20:42    Daglengte: 15:06 Vandaag
02:00
16°
1014.4 hPa   15.4°
1
Windvlaag: 1.3 m/s
62%
03:00
16°
1014.5 hPa   15.2°
1
Windvlaag: -0.5 m/s
69%
04:00
15°
1014.6 hPa   15.1°
1
Windvlaag: -0.6 m/s
72%
05:00
15°
1014.5 hPa   14.9°
1
Windvlaag: -0.3 m/s
70%
06:00
15°
1014.7 hPa   14.4°
1
Windvlaag: -0.1 m/s
15%
07:00
16°
1014.8 hPa   15.2°
1
Windvlaag: -0.6 m/s
29%
08:00
17°
1015.1 hPa   16.3°
1
Windvlaag: 0.7 m/s
70%
09:00
19°
1015.2 hPa   16.1°
2
Windvlaag: 2.3 m/s
76%
10:00
20°
1015.2 hPa   14.4°
2
Windvlaag: 3.4 m/s
83%
11:00
21°
1015.0 hPa   13.4°
3
Windvlaag: 3.3 m/s
78%
12:00
22°
1014.8 hPa   13.3°
3
Windvlaag: 2.9 m/s
58%
13:00
23°
1014.6 hPa   14.5°
3
Windvlaag: 2.3 m/s
19%
14:00
24°
1014.1 hPa   14.7°
3
Windvlaag: 2.6 m/s
65%
15:00
24°
1013.4 hPa   16.6°
3
Windvlaag: 1.5 m/s
60%
16:00
23°
1013.2 hPa   20.8°
3
Windvlaag: 0.9 m/s
21%
17:00
23°
1012.8 hPa
21%
21.5°
3
Windvlaag: 0.7 m/s
34%
18:00
23°
1012.3 hPa
70%
20.1°
3
Windvlaag: 0.8 m/s
49%
19:00
23°
1012.0 hPa
77%
19.2°
2
Windvlaag: 1 m/s
36%
20:00
22°
1011.8 hPa
15%
19.5°
1
Windvlaag: 1 m/s
10%
21:00
21°
1012.0 hPa
14%
19.6°
1
Windvlaag: 1.7 m/s
12%
22:00
20°
1011.7 hPa
14%
19.5°
1
Windvlaag: 1.9 m/s
18%
23:00
19°
1011.6 hPa
14%
18.7°
2
Windvlaag: 2.6 m/s
23%
 05:38     20:40    Daglengte: 15:02 Morgen
00:00
19°
1011.7 hPa
14%
18.0°
2
Windvlaag: 5.5 m/s
17%
01:00
18°
1011.8 hPa
14%
17.8°
2
Windvlaag: 5.9 m/s
15%
02:00
18°
1011.8 hPa
14%
17.4°
2
Windvlaag: 5.8 m/s
26%
03:00
18°
1011.9 hPa
14%
17.6°
2
Windvlaag: 4.1 m/s
15%
04:00
17°
1012.0 hPa
14%
16.9°
1
Windvlaag: 3.6 m/s
39%
05:00
16°
1012.2 hPa
14%
15.5°
2
Windvlaag: 4.9 m/s
16%
06:00
16°
1012.3 hPa
14%
15.2°
2
Windvlaag: 6.8 m/s
47%
07:00
17°
1012.5 hPa
14%
16.0°
2
Windvlaag: 5.9 m/s
40%
08:00
18°
1012.9 hPa
23%
16.8°
2
Windvlaag: 4.2 m/s
59%
09:00
19°
1013.0 hPa
30%
15.9°
2
Windvlaag: 3.2 m/s
60%
10:00
20°
1013.2 hPa
16%
14.7°
3
Windvlaag: 4 m/s
81%
11:00
21°
1013.4 hPa
24%
14.5°
2
Windvlaag: 3.7 m/s
23%
12:00
21°
1013.3 hPa
24%
14.8°
2
Windvlaag: 2.9 m/s
38%
13:00
22°
1013.4 hPa
34%
14.6°
2
Windvlaag: 3.7 m/s
39%
14:00
22°
1013.4 hPa 4.0 mm
78%
13.4°
2
Windvlaag: -3 m/s
86% warningclass
15:00
22°
1013.1 hPa 3.8 mm
82%
13.1°
2
Windvlaag: -2.9 m/s
86% warningclass
16:00
22°
1012.9 hPa 3.3 mm
82%
13.0°
2
Windvlaag: -4.5 m/s
86% warningclass
17:00
22°
1012.5 hPa 3.4 mm
82%
12.9°
2
Windvlaag: -3.6 m/s
86%
18:00
22°
1012.3 hPa
82%
12.9°
2
Windvlaag: -5.7 m/s
86%
19:00
21°
1012.0 hPa 3.7 mm
82%
14.1°
1
Windvlaag: -5.7 m/s
85% warningclass
20:00
20°
1012.0 hPa 3.9 mm
82%
17.0°
1
Windvlaag: -0.8 m/s
86%
21:00
18°
1012.3 hPa 4.4 mm
82%
17.6°
1
Windvlaag: 0 m/s
84% warningclass
22:00
18°
1012.3 hPa 4.1 mm
82%
17.0°
1
Windvlaag: 5.3 m/s
80% warningclass
23:00
18°
1011.2 hPa 5.9 mm
100%
13.9°
2
Windvlaag: 5.2 m/s
87%
 05:40     20:37    Daglengte: 14:57 Zaterdag 20 Aug
00:00
18°
1011.0 hPa 6.1 mm
100%
14.8°
2
Windvlaag: 3.9 m/s
88%
01:00
18°
1010.9 hPa 7.2 mm
100%
15.3°
2
Windvlaag: 2.9 m/s
88%
02:00
17°
1010.7 hPa 9.0 mm
100%
15.6°
2
Windvlaag: 2 m/s
88%
03:00
17°
1010.4 hPa 8.4 mm
100%
15.3°
3
Windvlaag: 0.4 m/s
88%
04:00
17°
1010.3 hPa 6.6 mm
100%
15.4°
3
Windvlaag: 0.2 m/s
94%
05:00
16°
1010.2 hPa 5.5 mm
100%
15.2°
3
Windvlaag: 0.6 m/s
78%
06:00
16°
1010.2 hPa
83%
14.3°
3
Windvlaag: 0.1 m/s
72%
07:00
16°
1010.5 hPa
36%
14.4°
2
Windvlaag: -0.3 m/s
87%
08:00
18°
1009.1 hPa
40%
15.9°
3
Windvlaag: 3.9 m/s
76%
09:00
18°
1009.2 hPa
79%
15.2°
3
Windvlaag: 5.3 m/s
76%
10:00
19°
1009.6 hPa
28%
15.6°
3
Windvlaag: 4.3 m/s
19%
11:00
20°
1009.7 hPa
21%
16.2°
3
Windvlaag: 2.6 m/s
18%
12:00
21°
1009.8 hPa
21%
15.6°
4
Windvlaag: 2.2 m/s
66%
13:00
21°
1009.8 hPa
22%
14.4°
4
Windvlaag: 3.1 m/s
43%
14:00
20°
1010.4 hPa
29%
13.9°
5
Windvlaag: 4.1 m/s
19%
15:00
19°
1010.6 hPa
22%
13.1°
5
Windvlaag: 4.7 m/s
42%
16:00
20°
1010.7 hPa
21%
12.9°
5
Windvlaag: 4.4 m/s
55%
17:00
20°
1011.0 hPa
21%
8.9°
5
Windvlaag: 5.5 m/s
59%
18:00
19°
1011.4 hPa
21%
7.3°
4
Windvlaag: 6.2 m/s
46%
19:00
18°
1011.6 hPa
21%
7.5°
3
Windvlaag: 6.2 m/s
45%
20:00
16°
1012.0 hPa
21%
10.3°
3
Windvlaag: 5.9 m/s
40%
21:00
15°
1012.3 hPa
21%
9.9°
2
Windvlaag: 8 m/s
40%
22:00
14°
1012.3 hPa
21%
10.0°
2
Windvlaag: 8.6 m/s
40%
23:00
14°
1012.4 hPa
21%
11.1°
2
Windvlaag: 9.4 m/s
25%
 05:42     20:34    Daglengte: 14:52 Zondag 21 Aug
00:00
13°
1012.4 hPa
21%
11.7°
2
Windvlaag: 10.2 m/s
37%
01:00
13°
1012.3 hPa
21%
11.9°
2
Windvlaag: 10.1 m/s
37%
Temp/Neerslag /Baro Onweer/Dauwpunt
    Temp Baro Neerslag Dauwpunt Wind Bewolking  
 05:36     20:42    Daglengte: 15:06 Vandaag
02:00
16°
1014.4 hPa   15.4°
1
62%
05:00
15°
1014.5 hPa   14.9°
1
70%
08:00
17°
1015.1 hPa   16.3°
1
70%
11:00
21°
1015.0 hPa   13.4°
3
78%
14:00
24°
1014.1 hPa   14.7°
3
65%
17:00
23°
1012.8 hPa   21.5°
3
34%
20:00
22°
1011.8 hPa   19.5°
1
10%
23:00
19°
1011.6 hPa   18.7°
2
23%
 05:38     20:40    Daglengte: 15:02 Morgen
02:00
18°
1011.8 hPa   17.4°
2
26%
05:00
16°
1012.2 hPa   15.5°
2
16%
08:00
18°
1012.9 hPa   16.8°
2
59%
11:00
21°
1013.4 hPa   14.5°
2
23%
14:00
22°
1013.4 hPa 4.0 mm 13.4°
2
86% warningclass
17:00
22°
1012.5 hPa 10.5 mm 12.9°
2
86%
20:00
20°
1012.0 hPa 7.6 mm 17.0°
1
86%
23:00
18°
1011.2 hPa 14.4 mm 13.9°
2
87%
 05:40     20:37    Daglengte: 14:57 Zaterdag 20 Aug
02:00
17°
1010.7 hPa 22.3 mm 15.6°
2
88%
05:00
16°
1010.2 hPa 20.5 mm 15.2°
3
78%
08:00
18°
1009.1 hPa   15.9°
3
76%
11:00
20°
1009.7 hPa   16.2°
3
18%
14:00
20°
1010.4 hPa   13.9°
5
19%
17:00
20°
1011.0 hPa   8.9°
5
59%
20:00
16°
1012.0 hPa   10.3°
3
40%
23:00
14°
1012.4 hPa   11.1°
2
25%
 05:42     20:34    Daglengte: 14:52 Zondag 21 Aug
02:00
13°
1012.2 hPa   11.7°
2
43%
05:00
11°
1012.6 hPa 20.9 mm 10.0°
2
1%
08:00
15°
1012.8 hPa 20.9 mm 11.0°
3
1%
11:00
20°
1012.6 hPa 20.9 mm 10.1°
4
0%
14:00
22°
1011.9 hPa 20.9 mm 8.8°
4
0%
17:00
20°
1012.4 hPa 20.9 mm 10.3°
2
1%
20:00
18°
1012.7 hPa 20.9 mm 11.0°
3
1%
23:00
13°
1013.0 hPa 21.0 mm 11.5°
2
1%
 05:44     20:32    Daglengte: 14:48 Maandag 22 Aug
02:00
14°
1013.7 hPa 21.0 mm 10.4°
3
1%
05:00
10°
1014.6 hPa 21.0 mm 9.7°
2
0%
08:00
14°
1015.6 hPa 21.0 mm 9.0°
3
0%
11:00
18°
1016.2 hPa 21.0 mm 6.9°
4
0%
14:00
21°
1016.9 hPa 21.0 mm 3.0°
4
0%
17:00
20°
1017.9 hPa 21.0 mm 3.3°
4
0%
20:00
14°
1019.6 hPa 21.0 mm 6.8°
2
0%
23:00
11°
1020.7 hPa 21.0 mm 6.7°
2
0%
 05:47     20:29    Daglengte: 14:42 Dinsdag 23 Aug
02:00
Voelt als: 8.9°
1022.0 hPa 21.0 mm 7.5°
1
0%
05:00
Voelt als: 8.5°
1022.7 hPa 21.0 mm 7.6°
1
0%
08:00
13°
1023.4 hPa 21.0 mm 8.3°
1
0%
11:00
20°
1023.5 hPa 21.0 mm 7.4°
0
0%
14:00
23°
1023.1 hPa 21.0 mm 6.1°
1
0%
17:00
23°
1022.8 hPa 21.0 mm 4.2°
2
0%
20:00
16°
1023.3 hPa 21.0 mm 7.8°
2
0%
23:00
13°
1024.0 hPa 21.0 mm 2.9°
2
0%
 05:49     20:26    Daglengte: 14:37 Woensdag 24 Aug
02:00
12°
1024.0 hPa 21.0 mm 7.1°
2
0%
05:00
11°
1023.9 hPa 21.0 mm 6.9°
2
0%
08:00
15°
1024.2 hPa 21.0 mm 7.5°
1
0%
11:00
20°
1023.9 hPa 21.0 mm 5.1°
2
0%
14:00
24°
1022.8 hPa 21.0 mm 3.1°
2
0%
17:00
23°
1022.2 hPa 21.0 mm 2.9°
1
1%
20:00
17°
1022.4 hPa 21.0 mm 6.8°
0
1%
23:00
15°
1022.9 hPa   7.3°
1
1%
 05:51     20:23    Daglengte: 14:32 Donderdag 25 Aug
02:00
14°
1023.0 hPa 42.5 mm 7.1°
0
1%
08:00
17°
1023.7 hPa 42.7 mm 7.5°
1
1%
14:00
25°
1023.5 hPa 42.9 mm 11.3°
2
1%
20:00
19°
1024.3 hPa 43.3 mm 14.8°
2
1%
 05:53     20:21    Daglengte: 14:28 Vrijdag 26 Aug
02:00
16°
1025.4 hPa 43.9 mm 15.0°
2
1%
08:00
16°
1025.7 hPa 44.7 mm 14.5°
3
1%
14:00
20°
1025.0 hPa 47.6 mm 12.7°
4
1%
20:00
17°
1024.0 hPa 48.3 mm 14.3°
2
1%
 05:55     20:18    Daglengte: 14:23 Zaterdag 27 Aug
02:00
15°
1023.8 hPa 48.3 mm 13.6°
3
1%
08:00
17°
1023.3 hPa 48.3 mm 13.2°
3
0%
14:00
26°
1022.6 hPa 48.3 mm 13.1°
4
0%
20:00
18°
1022.9 hPa 0.6 mm 11.3°
1
49%
 05:57     20:15    Daglengte: 14:18 Zondag 28 Aug
02:00
14°
1023.8 hPa 0.2 mm 10.7°
1
50%
08:00
15°
1023.7 hPa 0.2 mm 10.9°
1
54%
14:00
22°
1022.8 hPa   11.4°
1
50%
20:00
18°
1022.0 hPa 0.4 mm 11.7°
1
50%
 06:00     20:12    Daglengte: 14:12 Maandag 29 Aug
02:00
14°
1022.3 hPa 0.4 mm 10.8°
1
50%
08:00
15°
1021.6 hPa 0.4 mm 11.5°
0
54%
14:00
22°
1020.7 hPa 0.3 mm 11.3°
0
51%
20:00
17°
1019.9 hPa 0.7 mm 11.2°
0
50%
 06:02     20:09    Daglengte: 14:07 Dinsdag 30 Aug
02:00
13°
1020.3 hPa 0.2 mm 9.5°
1
42%
08:00
14°
1020.2 hPa 0.3 mm 9.3°
0
44%
14:00
21°
1019.8 hPa 0.1 mm 9.8°
1
38%
20:00
16°
1019.2 hPa 0.4 mm 9.9°
0
32%
 06:04     20:07    Daglengte: 14:03 Woensdag 31 Aug
02:00
13°
1019.6 hPa 0.2 mm 9.0°
1
38%
08:00
14°
1019.0 hPa 0.2 mm 9.6°
0
42%
14:00
20°
1017.6 hPa 0.2 mm 9.8°
1
45%
20:00
16°
1016.6 hPa 0.6 mm 9.6°
1
50%
 06:06     20:04    Daglengte: 13:58 Donderdag 01 Sep
02:00
13°
1016.6 hPa 0.6 mm 9.1°
1
46%
08:00
14°
1016.2 hPa 0.1 mm 9.6°
1
45%
14:00
20°
1015.3 hPa 0.4 mm 10.0°
0
42%
20:00
16°
1014.5 hPa 0.8 mm 10.2°
1
46%
  CAPE Lifted Index Hail Supercell Tornado SRH 3km CL BTM PRES CL TOP PRES Swiss DWD icon SMHI TS
 05:36     20:42    Daglengte: 15:06 Vandaag
02:00 0 J/kg 1.7 K 0 % 0 % 0 % 0 m²/s² 0 0 3.29 3
03:00 0 J/kg 1.5 K 0 % 0 % 0 % 0 m²/s² 0 0 2.82 3
04:00 0 J/kg 1.6 K 0 % 0 % 0 % 0 m²/s² 0 0 2.59 3
05:00 0 J/kg 1.8 K 0 % 0 % 0 % 0 m²/s² 0 0 2.61 3
06:00 0 J/kg 1.7 K 0 % 0 % 0 % 0 m²/s² 0 0 2.6 1
07:00 0 J/kg 1.8 K 0 % 0 % 0 % 0 m²/s² 0 0 3.12 1
08:00 0 J/kg 1.6 K 0 % 0 % 0 % 0 m²/s² 0 0 3.55 3
09:00 21 J/kg -0.2 K 0 % 0 % 0 % 0 m²/s² 0 0 1.57 3
10:00 50 J/kg -0.6 K 0 % 0 % 0 % 0 m²/s² 0 0 0.99 3
11:00 40 J/kg -0.2 K 0 % 0 % 0 % 0 m²/s² 0 0 1.12 3
12:00 76 J/kg -0.5 K 0 % 0 % 0 % 0 m²/s² 0 0 0.82 3
13:00 210 J/kg -1.3 K 0 % 0 % 0 % 0 m²/s² 0 0 -0.16 2
14:00 488 J/kg -2.3 K 0 % 0 % 0 % 0 m²/s² 0 0 -1.76 3
15:00 777 J/kg -3.4 K 0 % 0 % 0 % 0 m²/s² 0 0 -3.04 2
16:00 893 J/kg -4.2 K 0 % 0 % 0 % 0 m²/s² 0 0 -3.9 1
17:00 338 J/kg -1.8 K 0 % 0 % 0 % 0 m²/s² 0 0 -1.53 3
18:00 406 J/kg -2.4 K 0 % 0 % 0 % 0 m²/s² 0 0 -1.59 3
19:00 581 J/kg -2.5 K 0 % 0 % 0 % 0 m²/s² 0 0 -1.18 3
20:00 512 J/kg -2.4 K 0 % 0 % 0 % 0 m²/s² 0 0 -0.42 1
21:00 657 J/kg -2.9 K 0 % 0 % 0 % 0 m²/s² 0 0 -0.59 1
22:00 648 J/kg -2.6 K 0 % 0 % 0 % 0 m²/s² 0 0 0.25 0
23:00 741 J/kg -3.2 K 0 % 0 % 0 % 0 m²/s² 0 0 0.46 0
 05:38     20:40    Daglengte: 15:02 Morgen
00:00 737 J/kg -3.2 K 0 % 0 % 0 % 0 m²/s² 0 0 0.07 0
01:00 322 J/kg -3.2 K 0 % 0 % 0 % 0 m²/s² 0 0 -0.26 0
02:00 142 J/kg -3.2 K 0 % 0 % 0 % 0 m²/s² 0 0 -1.1 3
03:00 113 J/kg -2.9 K 0 % 0 % 0 % 0 m²/s² 0 0 -1.58 2
04:00 93 J/kg -1.2 K 0 % 0 % 0 % 0 m²/s² 0 0 -0.9 45
05:00 104 J/kg -0.9 K 0 % 0 % 0 % 0 m²/s² 0 0 -0.9 2
06:00 17 J/kg -0.5 K 0 % 0 % 0 % 0 m²/s² 0 0 -0.32 1
07:00 0 J/kg -0.2 K 0 % 0 % 0 % 0 m²/s² 0 0 0.01 2
08:00 0 J/kg -0.6 K 0 % 0 % 0 % 0 m²/s² 0 0 -0.6 3
09:00 0 J/kg -0.5 K 0 % 0 % 0 % 0 m²/s² 0 0 -0.29 2
10:00 169 J/kg -1.0 K 0 % 0 % 0 % 0 m²/s² 0 0 -0.37 3
11:00 231 J/kg -1.4 K 0 % 0 % 0 % 0 m²/s² 0 0 -1.4 2
12:00 193 J/kg -1.5 K 0 % 0 % 0 % 0 m²/s² 0 0 -1.5 3
13:00 572 J/kg -1.9 K 0 % 0 % 0 % 0 m²/s² 0 0 -1.33 2
14:00 747 J/kg -3.0 K 0 % 0 % 0 % 0 m²/s² 0 0 -2.43 95
15:00 511 J/kg -2.2 K 0 % 0 % 0 % 0 m²/s² 0 0 -1.57 95
16:00 662 J/kg -2.5 K 0 % 0 % 0 % 0 m²/s² 0 0 -2.47 80
17:00 590 J/kg -2.2 K 0 % 0 % 0 % 0 m²/s² 0 0 -1.99 61
18:00 787 J/kg -2.9 K 0 % 0 % 0 % 0 m²/s² 0 0 -2.33 61
19:00 861 J/kg -3.0 K 0 % 0 % 0 % 0 m²/s² 0 0 -2.13 3
20:00 871 J/kg -3.3 K 0 % 0 % 0 % 0 m²/s² 0 0 -1.17 80
21:00 103 J/kg -0.8 K 0 % 0 % 0 % 0 m²/s² 0 0 1.21 95
22:00 0 J/kg 0.6 K 0 % 0 % 0 % 0 m²/s² 0 0 2.16 95
23:00 0 J/kg 3.2 K 0 % 0 % 0 % 0 m²/s² 0 0 4.82 61
 05:40     20:37    Daglengte: 14:57 Zaterdag 20 Aug
00:00 0 J/kg 5.0 K 0 % 0 % 0 % 0 m²/s² 0 0 6.86 61
01:00 0 J/kg 6.5 K 0 % 0 % 0 % 0 m²/s² 0 0 8.42 63
02:00 0 J/kg 8.3 K 0 % 0 % 0 % 0 m²/s² 0 0 10.34 63
03:00 0 J/kg 7.5 K 0 % 0 % 0 % 0 m²/s² 0 0 9.84 63
04:00 0 J/kg 6.2 K 0 % 0 % 0 % 0 m²/s² 0 0 8.39 61
05:00 0 J/kg 5.8 K 0 % 0 % 0 % 0 m²/s² 0 0 7.99 61
06:00 0 J/kg 4.4 K 0 % 0 % 0 % 0 m²/s² 0 0 6.38 3
07:00 0 J/kg 4.0 K 0 % 0 % 0 % 0 m²/s² 0 0 6.04 3
08:00 0 J/kg 3.8 K 0 % 0 % 0 % 0 m²/s² 0 0 5.9 3
09:00 0 J/kg 3.6 K 0 % 0 % 0 % 0 m²/s² 0 0 6.15 3
10:00 0 J/kg 2.6 K 0 % 0 % 0 % 0 m²/s² 0 0 5.45 2
11:00 0 J/kg 2.5 K 0 % 0 % 0 % 0 m²/s² 0 0 5.95 2
12:00 4 J/kg 1.5 K 0 % 0 % 0 % 0 m²/s² 0 0 5.64 3
13:00 22 J/kg 0.6 K 0 % 0 % 0 % 0 m²/s² 0 0 5.07 2
14:00 53 J/kg 0.1 K 0 % 0 % 0 % 0 m²/s² 0 0 4.03 2
15:00 97 J/kg -0.3 K 0 % 0 % 0 % 0 m²/s² 0 0 2.22 3
16:00 2 J/kg 1.4 K 0 % 0 % 0 % 0 m²/s² 0 0 2.66 3
17:00 0 J/kg 2.3 K 0 % 0 % 0 % 0 m²/s² 0 0 4.01 3
18:00 0 J/kg 5.7 K 0 % 0 % 0 % 0 m²/s² 0 0 9.84 3
19:00 0 J/kg 8.0 K 0 % 0 % 0 % 0 m²/s² 0 0 13.76 3
20:00 0 J/kg 7.7 K 0 % 0 % 0 % 0 m²/s² 0 0 15.5 3
21:00 0 J/kg 8.1 K 0 % 0 % 0 % 0 m²/s² 0 0 15.15 2
22:00 0 J/kg 7.4 K 0 % 0 % 0 % 0 m²/s² 0 0 12.71 3
23:00 0 J/kg 6.9 K 0 % 0 % 0 % 0 m²/s² 0 0 12.06 3
 05:42     20:34    Daglengte: 14:52 Zondag 21 Aug
00:00 0 J/kg 6.5 K 0 % 0 % 0 % 0 m²/s² 0 0 11.93 3
01:00 0 J/kg 6.6 K 0 % 0 % 0 % 0 m²/s² 0 0 13.02 3
Temp Baro Wind Neerslag
  EWN Forecast EWN WRFDA DWD ICON FMI HIRLAM MET Norway GFS
 05:36     20:42    Daglengte: 15:06 Vandaag
02:00 15.8° 1014.4 hPa 1.0 m/s 0.0 mm 14.4° 1013.6 hPa 2.1 m/s 0.0 mm 15.8° 1014.6 hPa 1.3 m/s -2.0 mm 15.2° 1014.5 hPa 0.8 m/s 0.0 mm 15.2° 1013.9 hPa 0.6 m/s
05:00 15.1° 1014.5 hPa 0.7 m/s 0.0 mm 13.4° 1013.7 hPa 1.4 m/s 0.0 mm 15.3° 1014.6 hPa 0.8 m/s 0.0 mm 14.0° 1014.7 hPa 0.7 m/s 0.0 mm 14.3° 1014.2 hPa 0.9 m/s
08:00 17.4° 1015.1 hPa 0.7 m/s 0.0 mm 18.1° 1014.5 hPa 1.1 m/s 0.0 mm 17.8° 1015.3 hPa 0.4 m/s 0.0 mm 16.7° 1015.1 hPa 0.5 m/s 0.0 mm 18.6° 1014.7 hPa 1.0 m/s
11:00 21.4° 1015.0 hPa 2.8 m/s 0.0 mm 22.4° 1014.6 hPa 2.9 m/s 0.0 mm 20.9° 1015.2 hPa 2.7 m/s 0.0 mm 23.5° 1014.7 hPa 2.6 m/s 0.0 mm 22.6° 1014.7 hPa 2.2 m/s
14:00 23.7° 1014.1 hPa 3.1 m/s 0.0 mm 26.2° 1013.1 hPa 3.0 m/s 0.0 mm 23.6° 1014.4 hPa 3.4 m/s 0.0 mm 25.4° 1013.2 hPa 2.5 m/s 0.0 mm 22.9° 1013.5 hPa 2.2 m/s
17:00 23.0° 1012.8 hPa 3.1 m/s 0.0 mm 20.1° 1013.4 hPa 5.1 m/s 3.8 mm 25.3° 1012.8 hPa 3.5 m/s 0.0 mm 23.1° 1011.6 hPa 1.9 m/s 0.0 mm 26.4° 1012.1 hPa 2.9 m/s
20:00 22.1° 1011.8 hPa 1.3 m/s 0.0 mm 20.0° 1011.3 hPa 1.6 m/s 23.2 mm 22.2° 1012.0 hPa 0.6 m/s 0.1 mm 22.8° 1010.5 hPa 1.7 m/s 0.0 mm 20.4° 1012.4 hPa 1.3 m/s
23:00 19.4° 1011.6 hPa 1.6 m/s 0.0 mm 17.8° 1011.6 hPa 2.4 m/s 23.2 mm 19.5° 1012.0 hPa 1.6 m/s 0.0 mm 19.8° 1010.6 hPa 1.7 m/s 0.0 mm 16.9° 1012.8 hPa 1.2 m/s
 05:38     20:40    Daglengte: 15:02 Morgen
02:00 17.9° 1011.8 hPa 1.7 m/s 0.0 mm 19.1° 1011.1 hPa 2.8 m/s 23.2 mm 16.4° 1012.1 hPa 1.5 m/s 0.0 mm 17.7° 1010.6 hPa 1.3 m/s 0.0 mm 16.4° 1012.5 hPa 1.6 m/s
05:00 16.2° 1012.2 hPa 2.1 m/s 0.0 mm 18.3° 1011.7 hPa 1.8 m/s 23.3 mm 15.8° 1012.1 hPa 1.4 m/s 0.0 mm 15.4° 1012.3 hPa 3.3 m/s 0.0 mm 15.4° 1012.7 hPa 1.3 m/s
08:00 18.1° 1012.9 hPa 2.1 m/s 0.0 mm 18.2° 1011.4 hPa 1.8 m/s 27.8 mm 18.8° 1012.5 hPa 1.7 m/s 0.0 mm 14.5° 1013.9 hPa 2.7 m/s 0.0 mm 17.7° 1013.4 hPa 0.9 m/s
11:00 20.6° 1013.4 hPa 2.0 m/s 0.0 mm 19.9° 1010.8 hPa 4.3 m/s 33.4 mm 23.2° 1012.2 hPa 1.8 m/s 0.0 mm 19.9° 1015.1 hPa 2.5 m/s 0.0 mm 21.5° 1013.6 hPa 0.8 m/s
14:00 22.4° 1013.4 hPa 1.9 m/s 4.0 mm 22.6° 1008.9 hPa 6.7 m/s 37.3 mm 22.5° 1012.5 hPa 2.4 m/s 3.0 mm 23.4° 1015.3 hPa 1.4 m/s 0.0 mm 24.2° 1012.9 hPa 1.0 m/s
17:00 21.7° 1012.5 hPa 1.7 m/s 10.5 mm 20.8° 1008.0 hPa 3.2 m/s 42.2 mm 22.0° 1011.8 hPa 1.4 m/s 3.1 mm 24.0° 1015.1 hPa 1.2 m/s 0.0 mm 23.5° 1012.5 hPa 1.1 m/s
20:00 19.6° 1012.0 hPa 1.2 m/s 7.6 mm 20.0° 1009.1 hPa 2.0 m/s 46.1 mm 20.3° 1011.8 hPa 0.2 m/s 2.2 mm 19.6° 1015.4 hPa 0.6 m/s 0.0 mm 18.8° 1012.3 hPa 1.5 m/s
23:00 18.0° 1011.2 hPa 1.8 m/s 14.4 mm 14.9° 1010.6 hPa 3.8 m/s 46.1 mm 18.8° 1011.1 hPa 0.4 m/s 5.7 mm 17.3° 1012.2 hPa 0.4 m/s
 05:40     20:37    Daglengte: 14:57 Zaterdag 20 Aug
02:00 17.1° 1010.7 hPa 2.4 m/s 22.3 mm 11.8° 1010.9 hPa 2.8 m/s 46.1 mm 18.2° 1009.8 hPa 1.2 m/s 10.4 mm 17.2° 1011.5 hPa 1.1 m/s
05:00 16.1° 1010.2 hPa 2.7 m/s 20.5 mm 12.7° 1010.6 hPa 3.0 m/s 46.1 mm 17.5° 1008.5 hPa 1.0 m/s 7.7 mm 16.5° 1010.6 hPa 1.6 m/s
08:00 17.8° 1009.1 hPa 2.8 m/s 0.0 mm 15.7° 1010.8 hPa 2.1 m/s 46.1 mm 18.3° 1008.7 hPa 3.0 m/s 0.0 mm 16.1° 1010.6 hPa 1.7 m/s
11:00 19.9° 1009.7 hPa 3.4 m/s 0.0 mm 18.6° 1010.6 hPa 1.4 m/s 46.1 mm 20.2° 1009.5 hPa 3.9 m/s 0.0 mm 17.6° 1010.8 hPa 2.1 m/s
14:00 19.8° 1010.4 hPa 5.2 m/s 0.0 mm 21.7° 1010.1 hPa 3.1 m/s 46.1 mm 19.4° 1010.5 hPa 5.8 m/s 0.0 mm 22.2° 1010.6 hPa 2.2 m/s
17:00 19.6° 1011.0 hPa 4.7 m/s 0.0 mm 21.1° 1010.0 hPa 5.1 m/s 46.2 mm 19.2° 1011.3 hPa 4.6 m/s 0.0 mm 23.3° 1010.0 hPa 2.1 m/s
20:00 16.1° 1012.0 hPa 2.5 m/s 0.0 mm 15.5° 1010.7 hPa 2.7 m/s 46.2 mm 16.3° 1012.3 hPa 2.5 m/s 0.0 mm 18.8° 1011.1 hPa 3.0 m/s
23:00 13.6° 1012.4 hPa 2.3 m/s 0.0 mm 12.9° 1011.1 hPa 3.5 m/s 46.2 mm 13.8° 1012.7 hPa 2.0 m/s 0.0 mm 14.7° 1012.1 hPa 2.9 m/s
 05:42     20:34    Daglengte: 14:52 Zondag 21 Aug
02:00 12.8° 1012.2 hPa 2.2 m/s 0.0 mm 11.1° 1010.9 hPa 3.1 m/s 46.2 mm 13.3° 1012.5 hPa 2.0 m/s 0.0 mm 12.1° 1012.5 hPa 2.5 m/s
05:00 11.1° 1012.6 hPa 2.1 m/s 20.9 mm 11.1° 1012.6 hPa 2.1 m/s 20.9 mm
08:00 14.7° 1012.8 hPa 3.3 m/s 20.9 mm 14.7° 1012.8 hPa 3.3 m/s 20.9 mm
11:00 19.6° 1012.6 hPa 4.0 m/s 20.9 mm 19.6° 1012.6 hPa 4.0 m/s 20.9 mm
14:00 21.6° 1011.9 hPa 3.6 m/s 20.9 mm 21.6° 1011.9 hPa 3.6 m/s 20.9 mm
17:00 20.5° 1012.4 hPa 2.5 m/s 20.9 mm 20.5° 1012.4 hPa 2.5 m/s 20.9 mm
20:00 17.8° 1012.7 hPa 2.8 m/s 20.9 mm 17.8° 1012.7 hPa 2.8 m/s 20.9 mm
23:00 13.4° 1013.0 hPa 2.1 m/s 21.0 mm 13.4° 1013.0 hPa 2.1 m/s 21.0 mm
 05:44     20:32    Daglengte: 14:48 Maandag 22 Aug
02:00 13.7° 1013.7 hPa 2.6 m/s 21.0 mm 13.7° 1013.7 hPa 2.6 m/s 21.0 mm
05:00 10.3° 1014.6 hPa 2.2 m/s 21.0 mm 10.3° 1014.6 hPa 2.2 m/s 21.0 mm
08:00 14.1° 1015.6 hPa 3.3 m/s 21.0 mm 14.1° 1015.6 hPa 3.3 m/s 21.0 mm
11:00 18.4° 1016.2 hPa 4.2 m/s 21.0 mm 18.4° 1016.2 hPa 4.2 m/s 21.0 mm
14:00 20.9° 1016.9 hPa 3.9 m/s 21.0 mm 20.9° 1016.9 hPa 3.9 m/s 21.0 mm
17:00 20.2° 1017.9 hPa 4.1 m/s 21.0 mm 20.2° 1017.9 hPa 4.1 m/s 21.0 mm
20:00 14.2° 1019.6 hPa 1.7 m/s 21.0 mm 14.2° 1019.6 hPa 1.7 m/s 21.0 mm
23:00 10.5° 1020.7 hPa 1.7 m/s 21.0 mm 10.5° 1020.7 hPa 1.7 m/s 21.0 mm
 05:47     20:29    Daglengte: 14:42 Dinsdag 23 Aug
02:00 9.3° 1022.0 hPa 1.4 m/s 21.0 mm 9.3° 1022.0 hPa 1.4 m/s 21.0 mm
05:00 8.5° 1022.7 hPa 1.0 m/s 21.0 mm 8.5° 1022.7 hPa 1.0 m/s 21.0 mm
08:00 13.4° 1023.4 hPa 0.5 m/s 21.0 mm 13.4° 1023.4 hPa 0.5 m/s 21.0 mm
11:00 20.1° 1023.5 hPa 0.1 m/s 21.0 mm 20.1° 1023.5 hPa 0.1 m/s 21.0 mm
14:00 23.4° 1023.1 hPa 0.7 m/s 21.0 mm 23.4° 1023.1 hPa 0.7 m/s 21.0 mm
17:00 22.8° 1022.8 hPa 1.5 m/s 21.0 mm 22.8° 1022.8 hPa 1.5 m/s 21.0 mm
20:00 15.7° 1023.3 hPa 1.6 m/s 21.0 mm 15.7° 1023.3 hPa 1.6 m/s 21.0 mm
23:00 13.1° 1024.0 hPa 2.0 m/s 21.0 mm 13.1° 1024.0 hPa 2.0 m/s 21.0 mm
 05:49     20:26    Daglengte: 14:37 Woensdag 24 Aug
02:00 12.1° 1024.0 hPa 2.0 m/s 21.0 mm 12.1° 1024.0 hPa 2.0 m/s 21.0 mm
05:00 11.3° 1023.9 hPa 1.8 m/s 21.0 mm 11.3° 1023.9 hPa 1.8 m/s 21.0 mm
08:00 15.4° 1024.2 hPa 1.2 m/s 21.0 mm 15.4° 1024.2 hPa 1.2 m/s 21.0 mm
11:00 20.4° 1023.9 hPa 2.2 m/s 21.0 mm 20.4° 1023.9 hPa 2.2 m/s 21.0 mm
14:00 23.8° 1022.8 hPa 1.9 m/s 21.0 mm 23.8° 1022.8 hPa 1.9 m/s 21.0 mm
17:00 23.0° 1022.2 hPa 1.4 m/s 21.0 mm 23.0° 1022.2 hPa 1.4 m/s 21.0 mm
20:00 17.4° 1022.4 hPa 0.5 m/s 21.0 mm 17.4° 1022.4 hPa 0.5 m/s 21.0 mm
23:00 15.1° 1022.9 hPa 0.6 m/s 21.2 mm 15.1° 1022.9 hPa 0.6 m/s 21.2 mm
 05:51     20:23    Daglengte: 14:32 Donderdag 25 Aug
02:00 14.4° 1023.0 hPa 0.2 m/s 21.3 mm 14.4° 1023.0 hPa 0.2 m/s 21.3 mm
08:00 16.8° 1023.7 hPa 0.9 m/s 21.3 mm 16.8° 1023.7 hPa 0.9 m/s 21.3 mm
14:00 24.8° 1023.5 hPa 2.0 m/s 21.4 mm 24.8° 1023.5 hPa 2.0 m/s 21.4 mm
20:00 18.6° 1024.3 hPa 1.9 m/s 21.8 mm 18.6° 1024.3 hPa 1.9 m/s 21.8 mm
 05:53     20:21    Daglengte: 14:28 Vrijdag 26 Aug
02:00 16.0° 1025.4 hPa 2.3 m/s 22.0 mm 16.0° 1025.4 hPa 2.3 m/s 22.0 mm
08:00 15.8° 1025.7 hPa 3.2 m/s 22.4 mm 15.8° 1025.7 hPa 3.2 m/s 22.4 mm
14:00 19.8° 1025.0 hPa 3.9 m/s 24.0 mm 19.8° 1025.0 hPa 3.9 m/s 24.0 mm
20:00 17.4° 1024.0 hPa 2.0 m/s 24.1 mm 17.4° 1024.0 hPa 2.0 m/s 24.1 mm
 05:55     20:18    Daglengte: 14:23 Zaterdag 27 Aug
02:00 15.4° 1023.8 hPa 2.6 m/s 24.1 mm 15.4° 1023.8 hPa 2.6 m/s 24.1 mm
08:00 16.8° 1023.3 hPa 3.3 m/s 24.1 mm 16.8° 1023.3 hPa 3.3 m/s 24.1 mm
14:00 26.0° 1022.6 hPa 3.9 m/s 24.1 mm 26.0° 1022.6 hPa 3.9 m/s 24.1 mm
20:00 17.7° 1022.9 hPa 0.8 m/s 0.6 mm
 05:57     20:15    Daglengte: 14:18 Zondag 28 Aug
02:00 13.8° 1023.8 hPa 0.9 m/s 0.2 mm
08:00 14.9° 1023.7 hPa 1.1 m/s 0.2 mm
14:00 22.0° 1022.8 hPa 0.8 m/s 0.0 mm
20:00 17.8° 1022.0 hPa 0.7 m/s 0.4 mm
 06:00     20:12    Daglengte: 14:12 Maandag 29 Aug
02:00 14.1° 1022.3 hPa 0.6 m/s 0.4 mm
08:00 15.1° 1021.6 hPa 0.5 m/s 0.4 mm
14:00 21.6° 1020.7 hPa 0.4 m/s 0.3 mm
20:00 17.0° 1019.9 hPa 0.2 m/s 0.7 mm
 06:02     20:09    Daglengte: 14:07 Dinsdag 30 Aug
02:00 13.2° 1020.3 hPa 0.7 m/s 0.2 mm
08:00 14.0° 1020.2 hPa 0.3 m/s 0.3 mm
14:00 20.6° 1019.8 hPa 0.5 m/s 0.1 mm
20:00 16.2° 1019.2 hPa 0.4 m/s 0.4 mm
 06:04     20:07    Daglengte: 14:03 Woensdag 31 Aug
02:00 12.9° 1019.6 hPa 0.6 m/s 0.2 mm
08:00 13.9° 1019.0 hPa 0.4 m/s 0.2 mm
14:00 20.2° 1017.6 hPa 0.5 m/s 0.2 mm
20:00 16.1° 1016.6 hPa 0.7 m/s 0.6 mm
 06:06     20:04    Daglengte: 13:58 Donderdag 01 Sep
02:00 12.6° 1016.6 hPa 1.1 m/s 0.6 mm
08:00 13.7° 1016.2 hPa 0.7 m/s 0.1 mm
14:00 19.8° 1015.3 hPa 0.5 m/s 0.4 mm
20:00 15.5° 1014.5 hPa 0.9 m/s 0.8 mm
FMI Hirlam - 7.5 km EWN WRFDA - 12 km DWD ICON - 7 km GFS - 25 km Basiskaart






























































Updatetijd (Europe/Amsterdam) Resolutie Lengte Stap
FMI Hirlam 19:15, 01:15, 07:15, 13:15 7.5 km 49h 1h
EWN WRFDA 22:30, 04:30, 10:30, 16:30 12 km 73h 1h
DWD ICON 23:45, 05:45, 11:45, 17:45 7 km 75h 1h
GFS 20:00, 02:00, 08:00, 14:00 25 km 237h 3h
30+ mm
25-30 mm
20-25 mm
15-20 mm
10-15 mm
6-10 mm
4-6 mm
2-4 mm
1-2 mm
0.5-1 mm
0.2-0.5 mm
0.1-0.2 mm
30+ mm
25-30 mm
20-25 mm
15-20 mm
10-15 mm
6-10 mm
4-6 mm
2-4 mm
1-2 mm
0.5-1 mm
0.2-0.5 mm
0.1-0.2 mm
Sneeuwval
Natte sneeuw
Hagel
Vorst
30+ mm
25-30 mm
20-25 mm
15-20 mm
10-15 mm
6-10 mm
4-6 mm
2-4 mm
1-2 mm
0.5-1 mm
0.2-0.5 mm
0.1-0.2 mm
Sneeuwval
Natte sneeuw
Hagel
Vorst
Onweer
50 mm
40 mm
30 mm
26 mm
22 mm
18 mm
14 mm
10 mm
9 mm
8 mm
7 mm
6 mm
5 mm
4.5 mm
4 mm
3.5 mm
3 mm
2.5 mm
2 mm
1.5 mm
1 mm
0.8 mm
0.6 mm
0.4 mm
0.2 mm
0.05 mm
35°
30°
25°
20°
15°
10°
-5°
-10°
-15°
-20°
-25°
-30°
-35°
33> m/s
29 m/s
25 m/s
21 m/s
17 m/s
14 m/s
11 m/s
8 m/s
5 m/s
3 m/s
0 m/s
2600 J/kg
2400 J/kg
2200 J/kg
2000 J/kg
1800 J/kg
1600 J/kg
1400 J/kg
1200 J/kg
1000 J/kg
800 J/kg
600 J/kg
400 J/kg
200 J/kg
70 dBZ
65 dBZ
60 dBZ
55 dBZ
50 dBZ
45 dBZ
40 dBZ
35 dBZ
30 dBZ
25 dBZ
20 dBZ
15 dBZ
10 dBZ
5 dBZ
-1 K
-2 K
-3 K
-4 K